User: anonymous   Login
Location: Arthez
(43.0833°N, 0.2500°W)
Time: 10:01:34
(UTC+00:00)
Language:

COSMOS 1408 DEB - Orbit

View from above orbital plane
View from above orbital plane
View from above satellite
View from above satellite

Ground track
Ground track

The orbit data is extracted from the following two-line orbital elements,

1 50314U 82092AAF 22228.77608544  .00033749  00000-0  11060-2 0  9997
2 50314  83.2493 240.0115 0061998 186.4387 173.6066 15.29588721 39893
Epoch (UTC): 16 August 2022 18:37:33
Eccentricity: 0.0061998
inclination: 83.2493°
perigee height: 434 km
apogee height: 519 km
right ascension of ascending node: 240.0115°
argument of perigee: 186.4387°
revolutions per day: 15.29588721
mean anomaly at epoch: 173.6066°
orbit number at epoch: 3989

The dashed part of the orbit path shows where the satellite is in the earth's shadow,  

DLR